This demonstration page uses our WeatherBlox Daily Observations layout. Learn more.

Hourly Observations for April 6, 2015

Temp ( °F °C ) Dew Point ( °F °C ) Humidity (%) Winds ( mph kmh ) Pressure ( in mb ) Visibility ( mi km ) Precip ( " mm )
12:15 am 00:15 Clear 50 10 46 8 88 88 SSE 17 28 29.71 1006 10 16.0934 0 0
12:35 am 00:35 Clear 49 9.7 46 8 89 89 SSE 17 28 29.71 1006 10 16.0934 0 0
12:55 am 00:55 Clear 49 9.3 46 7.8 90 90 SSE 16 26 29.74 1007 10 16.0934 0 0
1:15 am 01:15 Clear 48 9 46 7.7 92 92 SSE 17 28 29.71 1006 10 16.0934 0 0
1:35 am 01:35 Clear 48 8.8 46 7.6 92 92 SSE 16 26 29.71 1006 10 16.0934 0 0
1:55 am 01:55 Mostly Cloudy 48 9 46 7.9 93 93 SSE 15 24 29.71 1006 7 11.26538 0 0
2:15 am 02:15 Cloudy 49 9.6 47 8.6 94 94 SSE 17 28 29.68 1005 7 11.26538 0 0
2:35 am 02:35 Cloudy 50 10 48 9 94 94 SSE 17 28 29.68 1005 7 11.26538 0 0
2:55 am 02:55 Cloudy with Mist and Fog 50 10.1 49 9.2 94 94 S 16 26 29.68 1005 5 8.0467 0 0
3:15 am 03:15 Cloudy with Mist and Fog 51 10.3 49 9.5 95 95 SSE 21 33 29.68 1005 5 8.0467 0 0
3:35 am 03:35 Cloudy with Mist and Fog 51 10.5 49 9.5 94 94 SSE 21 33 29.68 1005 5 8.0467 0 0
3:55 am 03:55 Cloudy with Mist and Fog 51 10.6 49 9.7 94 94 SSE 18 30 29.68 1005 4 6.43736 0 0
4:15 am 04:15 Cloudy with Mist and Fog 51 10.6 50 9.8 95 95 SSE 18 30 29.68 1005 3 4.82802 0 0
4:35 am 04:35 Cloudy with Mist and Fog 51 10.8 50 10 95 95 SSE 16 26 29.68 1005 4 6.43736 0 0
4:55 am 04:55 Cloudy with Mist and Fog 52 11 50 10.1 94 94 SSE 17 28 29.68 1005 4 6.43736 0 0
5:15 am 05:15 Cloudy with Mist and Fog 52 11.1 50 10.2 94 94 SSE 17 28 29.65 1004 4 6.43736 0 0
5:35 am 05:35 Cloudy with Mist and Fog 52 11.2 51 10.3 94 94 S 17 28 29.65 1004 4 6.43736 0 0
5:55 am 05:55 Cloudy with Mist and Fog 52 11.2 51 10.5 96 96 SSE 16 26 29.65 1004 4 6.43736 0 0
6:15 am 06:15 Cloudy with Mist and Fog 52 11.3 51 10.5 95 95 SSE 13 20 29.65 1004 3 4.82802 0 0
6:35 am 06:35 Cloudy with Mist and Fog 52 11.3 51 10.6 96 96 SSE 10 17 29.65 1004 3 4.82802 0 0
6:55 am 06:55 Cloudy with Mist and Fog 52 11 51 10.3 95 95 SSE 14 22 29.65 1004 1.75 2.816345 0 0
7:15 am 07:15 Cloudy with Mist and Fog 51 10.8 50 10.1 95 95 SSE 12 19 29.68 1005 1 1.60934 0 0
7:35 am 07:35 Cloudy with Mist and Fog 51 10.8 50 10.2 96 96 SSE 12 19 29.68 1005 0.75 1.207005 0 0
7:55 am 07:55 Cloudy with Fog 51 10.8 50 10.2 96 96 SE 9 15 29.68 1005 0.5 0.80467 0 0
8:15 am 08:15 Cloudy with Fog 51 10.8 50 10.2 96 96 SE 8 13 29.68 1005 0.5 0.80467 0 0
8:35 am 08:35 Cloudy with Fog 52 10.9 51 10.3 96 96 E 6 9 29.71 1006 0.5 0.80467 0 0
8:55 am 08:55 Cloudy with Fog 52 11 51 10.5 97 97 E 9 15 29.71 1006 0.25 0.402335 0 0
9:15 am 09:15 Cloudy with Fog 52 11.1 51 10.6 97 97 E 9 15 29.71 1006 0.5 0.80467 0 0
9:35 am 09:35 Cloudy with Fog 52 11.2 51 10.7 97 97 E 10 17 29.71 1006 0.25 0.402335 0 0
9:55 am 09:55 Cloudy with Fog 52 11.1 51 10.6 97 97 E 12 19 29.71 1006 0.25 0.402335 0 0
10:15 am 10:15 Cloudy with Fog 52 11.2 51 10.7 97 97 E 12 19 29.71 1006 0.25 0.402335 0 0
10:35 am 10:35 Cloudy with Fog 52 11.3 51 10.8 97 97 E 12 19 29.71 1006 0.5 0.80467 0 0
10:55 am 10:55 Cloudy with Mist and Fog 53 11.4 52 10.9 97 97 E 10 17 29.71 1006 0.75 1.207005 0 0
11:15 am 11:15 Cloudy with Mist and Fog 53 11.8 52 11.3 97 97 E 10 17 29.71 1006 2.5 4.02335 0 0
11:35 am 11:35 Cloudy with Mist and Fog 54 12.2 53 11.5 96 96 E 8 13 29.71 1006 5 8.0467 0 0
11:55 am 11:55 Cloudy 55 12.7 52 11.2 91 91 ESE 8 13 29.71 1006 7 11.26538 0 0
12:15 pm 12:15 Cloudy 55 13 52 11.2 89 89 ESE 7 11 29.71 1006 10 16.0934 0 0
12:35 pm 12:35 Cloudy 56 13.5 52 11.3 87 87 E 6 9 29.68 1005 10 16.0934 0 0
12:55 pm 12:55 Cloudy 57 13.7 52 11.2 85 85 Calm 29.71 1006 10 16.0934 0 0
1:15 pm 13:15 Cloudy 57 14.1 52 11.1 82 82 Calm 29.71 1006 10 16.0934 0 0
1:35 pm 13:35 Cloudy 58 14.5 52 11 80 80 ENE 5 7 29.71 1006 10 16.0934 0 0
1:55 pm 13:55 Cloudy 59 15.2 52 10.9 76 76 ENE 7 11 29.71 1006 10 16.0934 0 0
2:15 pm 14:15 Cloudy 60 15.5 51 10.4 72 72 NE 8 13 29.71 1006 10 16.0934 0 0
2:35 pm 14:35 Cloudy 60 15.3 51 10.5 73 73 NE 9 15 29.71 1006 10 16.0934 0 0
2:55 pm 14:55 Cloudy 59 15.2 50 10.1 72 72 NNE 9 15 29.71 1006 10 16.0934 0 0
3:15 pm 15:15 Cloudy 60 15.4 51 10.7 74 74 NE 12 19 29.71 1006 10 16.0934 0 0
3:35 pm 15:35 Cloudy 59 14.8 51 10.5 76 76 NE 12 19 29.71 1006 10 16.0934 0 0
3:55 pm 15:55 Cloudy 60 15.3 51 10.3 72 72 ENE 9 15 29.71 1006 10 16.0934 0 0
4:15 pm 16:15 Cloudy 61 15.9 50 10.2 69 69 NE 12 19 29.71 1006 10 16.0934 0 0
4:35 pm 16:35 Cloudy 61 16.3 50 10.1 67 67 ENE 10 17 29.71 1006 10 16.0934 0 0
4:55 pm 16:55 Cloudy 61 16 50 10 68 68 NE 14 22 29.71 1006 10 16.0934 0 0
5:15 pm 17:15 Cloudy 60 15.8 50 9.8 68 68 NE 12 19 29.71 1006 10 16.0934 0 0
5:35 pm 17:35 Cloudy 61 16 49 9.7 66 66 NNE 12 19 29.74 1007 10 16.0934 0 0
5:55 pm 17:55 Cloudy 60 15.8 49 9.5 66 66 NNE 14 22 29.71 1006 10 16.0934 0 0
6:15 pm 18:15 Cloudy 60 15.6 50 9.8 69 69 NE 14 22 29.74 1007 10 16.0934 0 0
6:35 pm 18:35 Cloudy 56 13.2 47 8.5 73 73 N 18 30 29.77 1008 10 16.0934 0 0
6:55 pm 18:55 Mostly Cloudy 53 11.8 47 8.2 79 79 N 18 30 29.77 1008 10 16.0934 0 0
7:15 pm 19:15 Sunny 53 11.5 47 8.1 80 80 NNE 17 28 29.77 1008 10 16.0934 0 0
7:35 pm 19:35 Sunny 51 10.8 46 8 83 83 NNE 17 28 29.77 1008 10 16.0934 0 0
7:55 pm 19:55 Mostly Cloudy 51 10.4 47 8.1 86 86 NNE 20 31 29.8 1009 10 16.0934 0 0
8:15 pm 20:15 Cloudy 51 10.5 47 8.3 86 86 NNE 15 24 29.77 1008 10 16.0934 0 0
8:35 pm 20:35 Cloudy 50 10.1 47 8.5 90 90 NNE 15 24 29.8 1009 10 16.0934 0 0
8:55 pm 20:55 Cloudy 50 10 47 8.5 91 91 NNE 17 28 29.8 1009 10 16.0934 0 0
9:15 pm 21:15 Cloudy 50 10 47 8.6 91 91 NE 15 24 29.8 1009 10 16.0934 0 0
9:35 pm 21:35 Cloudy 50 9.9 47 8.5 91 91 NNE 15 24 29.8 1009 10 16.0934 0 0
9:55 pm 21:55 Cloudy 49 9.6 47 8.6 94 94 NNE 14 22 29.8 1009 7 11.26538 0 0
10:15 pm 22:15 Cloudy 49 9.7 48 8.8 94 94 NNE 13 20 29.8 1009 7 11.26538 0 0
10:35 pm 22:35 Cloudy 51 10.4 49 9.6 95 95 ENE 15 24 29.8 1009 7 11.26538 0 0
10:55 pm 22:55 Cloudy with Mist and Fog 52 11 50 10.1 94 94 ENE 16 26 29.77 1008 5 8.0467 0 0
11:15 pm 23:15 Cloudy with Mist and Fog 52 11 50 10 94 94 ENE 18 30 29.77 1008 4 6.43736 0 0
11:35 pm 23:35 Cloudy with Mist and Fog 52 11 50 10 94 94 E 23 37 29.77 1008 4 6.43736 0 0
11:55 pm 23:55 Cloudy with Mist and Fog 51 10.8 50 10 95 95 ENE 17 28 29.77 1008 4 6.43736 0 0

Powered by AerisWeather